Tracking 19903 objects as of 16-Oct-2019
HD Live streaming from Space Station
objects crossing your sky now

COSMOS 1818 COOLANT


COSMOS 1818 COOLANT is no longer on orbit


NORAD ID: 36952
Int'l Code: 1987-011AG
Perigee: N/A
Apogee: N/A
Inclination: N/A
Period: N/A
Semi major axis: N/A
RCS: N/A
Launch date: February 1, 1987
Source: Commonwealth of Independent States (former USSR) (CIS)
Launch site: TYURATAM MISSILE AND SPACE COMPLEX (TTMTR)
Decay date: 2012-12-19

Note: This is SATELLITE DEBRIS
aabbcc
Your satellite tracking list
Your tracking list is empty




NASA's NSSDC Master Catalog

Two Line Element Set (TLE):
1 36952U 87011AG  12034.81598578  .00096644  00000-0  35036-1 0  9990
2 36952 065.0360 183.2468 0018170 250.1097 104.8140 14.32527113113552
Source of the keplerian elements: AFSPC